EST,Max TemperatureF,Mean TemperatureF,Min TemperatureF,Max Dew PointF,MeanDew PointF,Min DewpointF,Max Humidity, Mean Humidity, Min Humidity, Max Sea Level PressureIn, Mean Sea Level PressureIn, Min Sea Level PressureIn, Max VisibilityMiles, Mean VisibilityMiles, Min VisibilityMiles, Max Wind SpeedMPH, Mean Wind SpeedMPH, Max Gust SpeedMPH,PrecipitationIn, CloudCover, Events, WindDirDegrees
2012-11-1,41,39,37,37,36,34,93,89,87,29.76,29.70,29.64,10,7,2,13,10,20,0.00,8,Rain,261
2012-11-2,39,37,35,34,32,30,87,82,75,29.97,29.86,29.74,10,9,5,13,9,22,0.00,8,Rain,284
2012-11-3,73,54,35,32,31,30,81,70,22,30.10,30.08,30.04,10,10,10,9,7,17,0.00,8,Rain,303
2012-11-4,37,36,35,27,25,25,70,63,60,30.12,30.10,30.09,10,10,10,8,4,16,0.00,8,,326
2012-11-5,37,36,35,30,25,23,81,64,56,30.16,30.14,30.12,10,10,10,7,4,,0.00,8,,345
2012-11-6,46,38,30,23,22,21,69,50,37,30.09,30.02,29.96,10,10,10,7,2,,0.00,0,,100
2012-11-7,41,34,28,23,22,19,80,59,48,30.02,29.98,29.93,10,10,10,6,2,,0.00,0,,14
2012-11-8,44,35,26,28,26,19,81,63,37,30.16,30.13,30.10,10,10,10,9,5,,0.00,2,,315
2012-11-9,53,42,30,32,31,27,93,60,44,30.24,30.19,30.16,10,9,3,8,4,,0.00,0,,212
2012-11-10,64,52,41,39,36,32,93,53,32,30.25,30.19,30.02,10,9,5,10,7,,0.00,2,,168
2012-11-11,68,59,50,36,32,30,54,31,24,30.34,30.26,30.20,10,10,10,12,8,18,0.00,0,,166
2012-11-12,68,54,37,52,43,34,94,66,40,30.23,30.10,29.99,10,8,4,22,13,34,0.00,6,Rain,216
2012-11-13,39,36,32,25,22,19,70,58,45,30.49,30.43,30.40,10,10,10,8,5,,0.00,7,,308
2012-11-14,39,36,32,23,22,21,69,59,52,30.54,30.48,30.42,10,10,10,6,2,,0.00,4,,63
2012-11-15,48,39,30,25,24,23,75,52,37,30.34,30.30,30.28,10,10,10,4,0,,0.00,0,,40
2012-11-16,50,39,28,32,29,27,93,63,43,30.46,30.40,30.36,10,10,5,8,3,,0.00,1,,344
2012-11-17,53,43,33,28,26,25,81,47,33,30.59,30.55,30.53,10,10,10,5,2,,0.00,0,,51
2012-11-18,55,44,33,28,27,25,75,47,33,30.53,30.48,30.44,10,10,10,9,4,,0.00,0,,106
2012-11-19,50,42,33,32,30,28,81,56,43,30.39,30.31,30.24,10,9,5,6,2,,0.00,0,,121
2012-11-20,55,46,37,32,31,28,81,55,36,30.17,30.13,30.09,10,10,10,4,1,,0.00,4,,50
2012-11-21,59,48,37,32,24,19,81,38,23,30.23,30.20,30.18,10,10,10,4,2,,0.00,0,,5
2012-11-22,,,,,,,,,,,,,,,,,,,,,,
2012-11-23,,,,,,,,,,,,,,,,,,,,,,
2012-11-24,32,30,28,25,22,18,86,72,60,30.06,30.02,29.98,10,7,2,15,11,23,0.00,8,Snow,271
2012-11-25,39,32,26,21,19,18,80,58,42,29.99,29.91,29.84,10,10,2,12,7,20,0.00,4,Snow,226
2012-11-26,44,37,30,25,23,21,75,56,42,30.18,30.15,30.09,10,10,10,6,3,,0.00,3,,277
2012-11-27,33,32,32,30,26,19,93,76,56,30.28,30.25,30.20,10,8,2,7,3,,0.00,8,Snow,342
2012-11-28,39,34,28,21,18,14,69,53,36,30.32,30.28,30.25,10,10,10,13,8,23,0.00,3,,257
2012-11-29,44,36,28,23,20,16,74,48,31,30.37,30.30,30.25,10,10,7,12,6,,0.00,0,,205
2012-11-30,53,42,32,37,26,23,69,48,33,30.26,30.21,30.17,10,10,7,7,5,,0.00,4,,181